FW7817 Weather Reports


Display with metric or nautical units.
time (UTC)temp
F
wind
direction
speed
MPH
gust
MPH
rain 1hr
in
rain 24hr
in
rain mn
in
humidity
%
barometer
mb
20260903195326 97 133 4.0 11.0 0.00 0.00 0.00 48 1012.2
20260903194825 97 126 4.0 13.0 0.00 0.00 0.00 48 1012.2
20260903194325 97 139 4.0 13.0 0.00 0.00 0.00 48 1012.3
20260903193824 97 159 2.0 9.0 0.00 0.00 0.00 48 1012.3
20260903193324 97 236 2.0 8.0 0.00 0.00 0.00 48 1012.4
20260903192324 97 219 3.0 13.0 0.00 0.00 0.00 48 1012.7
20260903191825 97 126 5.0 13.0 0.00 0.00 0.00 49 1012.7
20260903191325 97 157 3.0 12.0 0.00 0.00 0.00 48 1012.8
20260903190825 97 120 2.0 7.0 0.00 0.00 0.00 50 1012.8
20260903190324 96 140 3.0 11.0 0.00 0.00 0.00 51 1012.8
20260903185825 96 204 3.0 11.0 0.00 0.00 0.00 50 1012.9
20260903185324 96 127 3.0 10.0 0.00 0.00 0.00 51 1012.9
20260903184824 96 111 4.0 11.0 0.00 0.00 0.00 51 1013.2
20260903184322 96 148 3.0 11.0 0.00 0.00 0.00 49 1013.2
20260903183822 96 128 2.0 7.0 0.00 0.00 0.00 50 1013.2
20260903183323 96 240 2.0 9.0 0.00 0.00 0.00 50 1013.3
20260903182821 96 292 3.0 12.0 0.00 0.00 0.00 52 1013.3
20260903182321 96 158 2.0 12.0 0.00 0.00 0.00 50 1013.3
20260903181820 96 200 2.0 9.0 0.00 0.00 0.00 51 1013.4
20260903181318 95 190 3.0 9.0 0.00 0.00 0.00 51 1013.5
20260903180821 95 127 3.0 10.0 0.00 0.00 0.00 52 1013.6
20260903180320 95 184 2.0 10.0 0.00 0.00 0.00 52 1013.7
20260903175308 94 153 3.0 11.0 0.00 0.00 0.00 52 1013.8
20260903174802 94 137 4.0 11.0 0.00 0.00 0.00 52 1013.9
20260903174256 94 111 4.0 11.0 0.00 0.00 0.00 52 1013.8
20260903173750 94 159 3.0 9.0 0.00 0.00 0.00 52 1013.9
20260903173245 95 161 2.0 8.0 0.00 0.00 0.00 53 1013.9
20260903172232 94 253 2.0 11.0 0.00 0.00 0.00 54 1014.0
20260903171726 94 118 3.0 9.0 0.00 0.00 0.00 53 1014.2
20260903171220 94 269 2.0 9.0 0.00 0.00 0.00 54 1014.2
20260903170714 94 157 2.0 8.0 0.00 0.00 0.00 54 1014.2
20260903170208 94 208 2.0 9.0 0.00 0.00 0.00 53 1014.2
20260903165702 93 117 2.0 9.0 0.00 0.00 0.00 56 1014.1
20260903165156 92 157 3.0 9.0 0.00 0.00 0.00 55 1014.3
20260903164650 92 173 3.0 9.0 0.00 0.00 0.00 55 1014.3
20260903164145 92 159 3.0 9.0 0.00 0.00 0.00 56 1014.3
20260903163639 92 148 2.0 11.0 0.00 0.00 0.00 57 1014.3
20260903163132 92 153 2.0 11.0 0.00 0.00 0.00 56 1014.3
20260903162117 92 157 2.0 6.0 0.00 0.00 0.00 56 1014.4
20260903161611 91 208 2.0 10.0 0.00 0.00 0.00 57 1014.4
20260903161111 91 223 2.0 10.0 0.00 0.00 0.00 57 1014.3
20260903160556 91 264 2.0 7.0 0.00 0.00 0.00 57 1014.4
20260903155038 90 80 3.0 9.0 0.00 0.00 0.00 58 1014.5
20260903154531 90 260 3.0 10.0 0.00 0.00 0.00 58 1014.5
20260903154026 90 138 2.0 9.0 0.00 0.00 0.00 60 1014.5
20260903153520 90 113 2.0 7.0 0.00 0.00 0.00 60 1014.5
20260903153014 89 200 1.0 7.0 0.00 0.00 0.00 61 1014.4
20260903152507 89 171 2.0 11.0 0.00 0.00 0.00 62 1014.6
20260903152002 88 138 2.0 11.0 0.00 0.00 0.00 63 1014.6
20260903151455 88 151 2.0 6.0 0.00 0.00 0.00 63 1014.7
20260903150949 88 142 1.0 6.0 0.00 0.00 0.00 61 1014.7
20260903150443 87 188 1.0 5.0 0.00 0.00 0.00 64 1014.8
20260903145937 87 140 2.0 10.0 0.00 0.00 0.00 64 1014.8
20260903145431 86 156 2.0 10.0 0.00 0.00 0.00 65 1014.6
20260903144926 86 172 2.0 6.0 0.00 0.00 0.00 64 1014.6
20260903144420 86 145 2.0 6.0 0.00 0.00 0.00 65 1014.5
20260903143914 86 256 2.0 6.0 0.00 0.00 0.00 65 1014.5
20260903142902 86 202 2.0 5.0 0.00 0.00 0.00 65 1014.3
20260903142356 85 189 2.0 8.0 0.00 0.00 0.00 65 1014.3
20260903141343 85 138 2.0 8.0 0.00 0.00 0.00 67 1014.5
20260903140837 84 254 2.0 8.0 0.00 0.00 0.00 67 1014.4
20260903140332 83 294 2.0 8.0 0.00 0.00 0.00 68 1014.3
20260903134814 82 146 3.0 13.0 0.00 0.00 0.00 69 1014.3
20260903134307 82 188 3.0 13.0 0.00 0.00 0.00 70 1014.3
20260903133802 81 150 2.0 9.0 0.00 0.00 0.00 70 1014.2
20260903132750 80 169 3.0 8.0 0.00 0.00 0.00 71 1014.3
20260903132246 80 134 3.0 9.0 0.00 0.00 0.00 72 1014.3
20260903131743 79 161 3.0 9.0 0.00 0.00 0.00 73 1014.2
20260903130726 78 148 2.0 9.0 0.00 0.00 0.00 74 1014.3
20260903130220 78 165 2.0 8.0 0.00 0.00 0.00 75 1014.2
20260903125714 78 192 2.0 8.0 0.00 0.00 0.00 75 1014.3
20260903125208 77 157 2.0 6.0 0.00 0.00 0.00 75 1014.2
20260903123656 77 157 2.0 9.0 0.00 0.00 0.00 75 1014.1
20260903123154 77 155 2.0 7.0 0.00 0.00 0.00 75 1014.2
20260903122652 77 138 2.0 7.0 0.00 0.00 0.00 75 1014.2
20260903122152 77 137 2.0 7.0 0.00 0.00 0.00 75 1014.2
20260903121150 77 155 2.0 8.0 0.00 0.00 0.00 75 1014.0
20260903115149 77 108 1.0 7.0 0.00 0.00 0.00 75 1013.9
20260903114648 77 139 1.0 7.0 0.00 0.00 0.00 74 1013.8
20260903114148 77 158 1.0 4.0 0.00 0.00 0.00 74 1013.8
20260903113144 77 165 1.0 6.0 0.00 0.00 0.00 74 1013.8
20260903112643 77 194 1.0 9.0 0.00 0.00 0.00 74 1013.6
20260903112144 77 136 1.0 9.0 0.00 0.00 0.00 74 1013.6
20260903111644 77 157 1.0 7.0 0.00 0.00 0.00 73 1013.6
20260903111144 77 170 1.0 3.0 0.00 0.00 0.00 73 1013.5
20260903110643 77 136 1.0 5.0 0.00 0.00 0.00 73 1013.6
20260903110143 77 149 1.0 5.0 0.00 0.00 0.00 73 1013.5
20260903105644 77 158 1.0 7.0 0.00 0.00 0.00 73 1013.6
20260903105144 77 173 1.0 7.0 0.00 0.00 0.00 73 1013.6
20260903104144 77 155 1.0 3.0 0.00 0.00 0.00 73 1013.4
20260903103643 77 173 1.0 3.0 0.00 0.00 0.00 73 1013.4
20260903103144 77 166 1.0 4.0 0.00 0.00 0.00 73 1013.5
20260903102644 77 184 1.0 4.0 0.00 0.00 0.00 73 1013.4
20260903102144 77 175 1.0 4.0 0.00 0.00 0.00 73 1013.4
20260903101643 77 154 1.0 4.0 0.00 0.00 0.00 73 1013.4
20260903101143 77 142 1.0 7.0 0.00 0.00 0.00 73 1013.4
20260903100641 77 165 1.0 7.0 0.00 0.00 0.00 73 1013.4
20260903095631 77 153 1.0 5.0 0.00 0.00 0.00 72 1013.4
20260903095132 77 173 1.0 5.0 0.00 0.00 0.00 72 1013.4
20260903093129 77 160 1.0 7.0 0.00 0.00 0.00 72 1013.5
20260903092129 77 146 1.0 5.0 0.00 0.00 0.00 72 1013.4
20260903091629 77 154 1.0 5.0 0.00 0.00 0.00 72 1013.4
20260903091128 77 159 1.0 4.0 0.00 0.00 0.00 72 1013.4
20260903085626 77 146 1.0 7.0 0.00 0.00 0.00 72 1013.4
20260903085123 77 169 0.0 7.0 0.00 0.00 0.00 72 1013.5
20260903084623 77 217 0.0 0.0 0.00 0.00 0.00 72 1013.3
20260903084124 77 134 0.0 0.0 0.00 0.00 0.00 72 1013.3
20260903083622 78 133 0.0 0.0 0.00 0.00 0.00 72 1013.2
20260903083121 78 134 0.0 0.0 0.00 0.00 0.00 71 1013.4
20260903082115 78 134 0.0 0.0 0.00 0.00 0.00 71 1013.3
20260903081609 78 134 0.0 0.0 0.00 0.00 0.00 71 1013.3
20260903081103 78 134 0.0 0.0 0.00 0.00 0.00 70 1013.3
20260903080557 78 134 0.0 0.0 0.00 0.00 0.00 70 1013.2
20260903080051 78 134 0.0 0.0 0.00 0.00 0.00 70 1013.2
20260903075545 78 134 0.0 0.0 0.00 0.00 0.00 70 1013.2
20260903075040 79 134 0.0 0.0 0.00 0.00 0.00 69 1013.2
20260903074533 79 133 0.0 0.0 0.00 0.00 0.00 69 1013.3
20260903074027 79 133 0.0 2.0 0.00 0.00 0.00 69 1013.3
20260903073521 79 133 0.0 2.0 0.00 0.00 0.00 69 1013.3
20260903073016 79 133 0.0 3.0 0.00 0.00 0.00 68 1013.3
20260903072510 79 133 0.0 3.0 0.00 0.00 0.00 68 1013.3
20260903072003 80 174 0.0 2.0 0.00 0.00 0.00 68 1013.3
20260903071458 80 174 0.0 2.0 0.00 0.00 0.00 68 1013.4
20260903070951 80 174 0.0 2.0 0.00 0.00 0.00 67 1013.3
20260903070445 80 171 0.0 2.0 0.00 0.00 0.00 67 1013.3
20260903065433 80 176 0.0 8.0 0.00 0.00 0.00 66 1013.4
20260903064927 80 175 1.0 8.0 0.00 0.00 0.00 66 1013.4
20260903064421 80 166 1.0 4.0 0.00 0.00 0.00 66 1013.4
20260903063915 80 155 1.0 4.0 0.00 0.00 0.00 66 1013.4
20260903063409 81 175 0.0 2.0 0.00 0.00 0.00 65 1013.4
20260903062357 81 188 0.0 3.0 0.00 0.00 0.00 65 1013.4
20260903061851 81 188 0.0 3.0 0.00 0.00 0.00 64 1013.4
20260903061345 81 175 0.0 2.0 0.00 0.00 0.00 64 1013.5
20260903060840 81 173 0.0 2.0 0.00 0.00 0.00 64 1013.5
20260903060334 82 179 0.0 2.0 0.00 0.00 0.00 64 1013.6
20260903055321 82 167 0.0 4.0 0.00 0.00 0.00 63 1013.5
20260903054815 82 163 1.0 3.0 0.00 0.00 0.00 63 1013.5
20260903054309 82 163 1.0 5.0 0.00 0.00 0.00 63 1013.5
20260903053803 82 166 1.0 7.0 0.00 0.00 0.00 62 1013.3
20260903053258 82 155 1.0 7.0 0.00 0.00 0.00 62 1013.4
20260903052751 82 168 1.0 5.0 0.00 0.00 0.00 62 1013.3
20260903052245 82 134 1.0 5.0 0.00 0.00 0.00 62 1013.3
20260903051740 82 151 1.0 6.0 0.00 0.00 0.00 62 1013.5
20260903051234 83 136 1.0 6.0 0.00 0.00 0.00 62 1013.4
20260903050735 83 156 0.0 3.0 0.00 0.00 0.00 61 1013.4
20260903050233 83 188 1.0 4.0 0.00 0.00 0.00 61 1013.4
20260903045731 83 218 1.0 5.0 0.00 0.00 0.00 61 1013.5
20260903045231 83 190 1.0 5.0 0.00 0.00 0.00 61 1013.4
20260903044731 83 162 1.0 5.0 0.00 0.00 0.00 61 1013.4
20260903044231 83 158 1.0 6.0 0.00 0.00 0.00 61 1013.4
20260903043731 83 167 1.0 6.0 0.00 0.00 0.00 61 1013.5
20260903042731 83 155 1.0 5.0 0.00 0.00 0.00 61 1013.5
20260903041725 83 171 1.0 5.0 0.00 0.00 0.00 60 1013.5
20260903041225 83 138 1.0 5.0 0.00 0.00 0.00 60 1013.5
20260903040724 84 135 1.0 5.0 0.00 0.00 0.00 60 1013.5
20260903040224 84 158 1.0 6.0 0.00 0.00 0.00 60 1013.5
20260903035723 84 163 1.0 6.0 0.00 0.00 0.00 59 1013.5
20260903035223 84 144 1.0 2.0 0.00 0.00 0.00 59 1013.6
20260903034723 85 143 1.0 3.0 0.00 0.00 0.00 59 1013.6
20260903034222 85 117 1.0 3.0 0.00 0.00 0.00 58 1013.6
20260903033721 85 103 1.0 3.0 0.00 0.00 0.00 58 1013.7
20260903033222 85 133 1.0 6.0 0.00 0.00 0.00 58 1013.5
20260903032721 85 131 1.0 6.0 0.00 0.00 0.00 57 1013.6
20260903032221 86 132 2.0 5.0 0.00 0.00 0.00 57 1013.6
20260903031721 86 118 2.0 5.0 0.00 0.00 0.00 57 1013.5
20260903031219 86 117 2.0 7.0 0.00 0.00 0.00 56 1013.6
20260903030720 86 116 2.0 7.0 0.00 0.00 0.00 56 1013.5
20260903030219 86 126 2.0 5.0 0.00 0.00 0.00 56 1013.6
20260903025717 87 155 2.0 6.0 0.00 0.00 0.00 56 1013.6
20260903025215 87 135 2.0 6.0 0.00 0.00 0.00 55 1013.4
20260903024717 87 92 2.0 5.0 0.00 0.00 0.00 55 1013.4
20260903024210 87 148 2.0 7.0 0.00 0.00 0.00 55 1013.4
20260903023703 87 132 2.0 7.0 0.00 0.00 0.00 55 1013.4
20260903023157 87 151 2.0 8.0 0.00 0.00 0.00 55 1013.3
20260903022651 88 123 2.0 8.0 0.00 0.00 0.00 55 1013.3
20260903022146 88 131 2.0 5.0 0.00 0.00 0.00 54 1013.3
20260903021639 88 138 2.0 6.0 0.00 0.00 0.00 54 1013.2
20260903021133 88 132 2.0 6.0 0.00 0.00 0.00 54 1013.2
20260903020627 88 157 2.0 7.0 0.00 0.00 0.00 54 1013.0
20260903020121 88 143 2.0 7.0 0.00 0.00 0.00 54 1013.0
20260903015615 88 157 1.0 5.0 0.00 0.00 0.00 54 1012.9
20260903015110 88 84 1.0 3.0 0.00 0.00 0.00 54 1012.9
20260903014604 88 132 1.0 4.0 0.00 0.00 0.00 54 1012.9
20260903014057 88 128 1.0 4.0 0.00 0.00 0.00 54 1012.8
20260903013551 89 130 1.0 2.0 0.00 0.00 0.00 54 1012.7
20260903013045 89 128 1.0 3.0 0.00 0.00 0.00 53 1012.6
20260903012540 89 127 1.0 3.0 0.00 0.00 0.00 53 1012.6
20260903012034 90 136 1.0 3.0 0.00 0.00 0.00 52 1012.6
20260903011022 91 155 1.0 3.0 0.00 0.00 0.00 51 1012.6
20260903010516 91 121 1.0 6.0 0.00 0.00 0.00 51 1012.6
20260903005503 92 130 2.0 7.0 0.00 0.00 0.00 51 1012.5
20260903004957 92 143 2.0 7.0 0.00 0.00 0.00 50 1012.4
20260903004451 92 128 1.0 4.0 0.00 0.00 0.00 50 1012.4
20260903003946 93 150 1.0 4.0 0.00 0.00 0.00 49 1012.4
20260903003439 93 163 1.0 5.0 0.00 0.00 0.00 49 1012.3
20260903002933 93 160 2.0 5.0 0.00 0.00 0.00 48 1012.4
20260903002427 94 136 2.0 6.0 0.00 0.00 0.00 48 1012.4
20260903001921 94 121 2.0 6.0 0.00 0.00 0.00 47 1012.3
20260903000909 94 130 2.0 6.0 0.00 0.00 0.00 47 1012.4
20260903000407 95 148 2.0 6.0 0.00 0.00 0.00 46 1012.4
20260902235907 95 135 2.0 5.0 0.00 0.00 0.00 46 1012.3
20260902235407 95 150 2.0 5.0 0.00 0.00 0.00 45 1012.3
20260902234906 96 129 2.0 6.0 0.00 0.00 0.00 44 1012.3
20260902234407 96 142 2.0 10.0 0.00 0.00 0.00 44 1012.4
20260902233905 96 153 3.0 10.0 0.00 0.00 0.00 43 1012.4
20260902233405 97 203 3.0 8.0 0.00 0.00 0.00 43 1012.4
20260902232905 97 147 2.0 8.0 0.00 0.00 0.00 42 1012.4
20260902232405 97 116 2.0 7.0 0.00 0.00 0.00 42 1012.4
20260902231905 97 164 2.0 10.0 0.00 0.00 0.00 41 1012.4
20260902231404 98 209 2.0 10.0 0.00 0.00 0.00 42 1012.5
20260902230905 98 155 2.0 7.0 0.00 0.00 0.00 41 1012.6
20260902230405 98 175 1.0 7.0 0.00 0.00 0.00 41 1012.6
20260902225905 98 133 2.0 7.0 0.00 0.00 0.00 41 1012.5
20260902225405 98 129 2.0 11.0 0.00 0.00 0.00 41 1012.6
20260902224905 98 166 2.0 11.0 0.00 0.00 0.00 40 1012.6
20260902224404 99 128 2.0 10.0 0.00 0.00 0.00 40 1012.6
20260902223859 98 140 2.0 10.0 0.00 0.00 0.00 41 1012.6
20260902222851 99 144 1.0 4.0 0.00 0.00 0.00 40 1012.6
20260902222351 99 296 1.0 6.0 0.00 0.00 0.00 42 1012.6
20260902221849 99 126 1.0 6.0 0.00 0.00 0.00 40 1012.7
20260902221349 99 145 2.0 6.0 0.00 0.00 0.00 40 1012.7
20260902220348 99 256 2.0 7.0 0.00 0.00 0.00 41 1012.8
20260902215848 99 148 2.0 6.0 0.00 0.00 0.00 39 1012.8
20260902215346 100 157 2.0 6.0 0.00 0.00 0.00 39 1012.9
20260902214845 100 150 3.0 10.0 0.00 0.00 0.00 39 1012.8
20260902214345 100 195 3.0 10.0 0.00 0.00 0.00 38 1012.9
20260902213845 100 105 2.0 9.0 0.00 0.00 0.00 39 1012.9
20260902213342 100 159 1.0 6.0 0.00 0.00 0.00 39 1013.0
20260902212843 100 267 1.0 6.0 0.00 0.00 0.00 39 1013.2
20260902212343 100 233 2.0 8.0 0.00 0.00 0.00 38 1013.0
20260902210840 100 103 3.0 14.0 0.00 0.00 0.00 38 1013.3
20260902210340 101 136 2.0 9.0 0.00 0.00 0.00 39 1013.3
20260902205841 100 250 4.0 14.0 0.00 0.00 0.00 40 1013.4
20260902205340 100 127 4.0 14.0 0.00 0.00 0.00 39 1013.4
20260902204840 100 111 2.0 9.0 0.00 0.00 0.00 38 1013.5
20260902203840 100 137 2.0 9.0 0.00 0.00 0.00 41 1013.5
20260902203341 100 148 3.0 8.0 0.00 0.00 0.00 40 1013.6
20260902202841 100 98 3.0 10.0 0.00 0.00 0.00 40 1013.8
20260902201840 99 134 3.0 10.0 0.00 0.00 0.00 40 1013.9
20260902201340 100 137 3.0 9.0 0.00 0.00 0.00 39 1013.9
20260902200841 100 211 3.0 11.0 0.00 0.00 0.00 40 1013.9
20260902200340 101 161 3.0 11.0 0.00 0.00 0.00 40 1014.0
20260902195840 101 115 2.0 11.0 0.00 0.00 0.00 39 1014.0